Wetbulb
75.79 76.03 76.51 75.69 74.62 76.34 75.72 76.22 75.48 75.15 75.39 74.00 74.75 75.18 74.03 74.19 74.94 74.29 76.54 77.89 77.09 77.15 76.51 76.35 76.14 76.07 76.25 76.10 75.44 74.90 74.57 74.25 75.87 75.14 74.09 73.90 74.54 74.73 74.40 73.88 74.86 74.55 75.00
77.80 75.55 76.63 75.38 74.44 76.94 75.00 75.98 76.33 75.25 75.83 73.11 74.20 74.35 74.94 74.74 74.60 74.94 75.76 76.40 77.44 77.12 77.01 76.91 76.75 76.81 76.86 76.47 76.23 75.99 75.55 74.78 74.85 76.00 75.38 75.33 75.19 75.09 75.36 74.20 74.55 75.35 75.00
78.15 78.44 76.03 75.65 75.25 76.06 76.69 76.10 77.32 75.86 75.27 73.48 73.77 73.44 74.51 75.17 74.77 76.38 76.71 77.31 77.23 77.43 77.48 77.35 77.54 77.54 77.78 76.99 76.58 76.78 76.87 76.45 76.09 75.84 76.12 76.07 75.62 75.05 75.97 75.57 75.32 75.19 75.50
76.86 77.60 75.54 75.36 75.79 76.26 73.69 75.15 74.98 73.77 73.93 72.22 73.13 72.36 73.89 75.04 75.52 75.71 76.12 76.28 75.15 76.21 76.70 77.76 77.43 77.45 78.03 78.05 77.96 77.61 77.33 77.06 76.63 76.40 76.25 76.22 76.50 75.76 75.34 75.67 75.65 75.35 75.25
76.44 76.70 74.78 74.20 78.21 75.07 74.04 72.78 73.36 74.03 73.12 72.25 71.78 72.23 73.91 73.69 74.34 74.30 75.22 76.46 76.84 75.86 75.42 76.97 77.23 77.30 77.33 77.03 77.86 77.75 77.65 77.33 76.80 76.60 76.34 76.07 75.97 76.12 75.83 75.80 75.68 75.44 75.06
77.04 76.48 75.02 78.35 76.11 73.22 73.56 73.00 74.56 73.66 73.29 72.26 71.42 71.99 73.44 73.38 73.37 73.37 74.13 74.72 76.26 76.58 76.81 77.16 77.08 76.96 76.88 76.76 76.91 77.26 77.79 77.55 77.16 76.73 76.60 76.27 76.22 75.81 75.34 75.33 75.47 75.40 75.28
77.66 77.57 74.33 75.97 76.04 75.10 74.57 77.22 74.51 74.50 71.67 73.18 71.40 71.13 72.54 73.15 73.08 73.13 73.51 73.84 75.63 76.34 76.98 76.39 76.85 75.71 76.09 76.39 75.98 76.25 77.05 77.55 77.32 76.69 76.35 76.00 75.85 75.59 75.24 75.17 74.88 74.63 74.60
77.94 77.49 77.08 75.89 76.76 75.33 75.85 77.25 77.04 71.57 71.63 72.51 69.40 69.36 67.13 69.27 71.42 72.59 73.02 73.38 74.23 75.06 74.91 76.68 77.87 78.98 77.65 76.18 77.66 76.35 76.85 77.07 77.28 77.01 76.44 75.77 75.35 75.20 74.99 74.79 74.66 74.33 74.33
77.84 78.29 78.20 76.92 77.71 77.57 74.07 76.65 73.80 72.14 70.95 72.78 73.21 69.12 65.60 64.58 68.84 71.69 73.78 72.73 75.75 73.45 74.95 74.50 76.73 78.64 80.10 77.46 77.64 77.74 76.69 75.90 76.97 77.41 76.99 76.32 75.20 74.66 74.54 74.54 74.49 74.27 74.02
77.95 78.29 78.22 77.68 77.86 75.74 76.55 75.57 76.31 75.02 76.15 74.27 75.72 72.11 73.71 72.93 68.63 67.37 71.75 73.00 74.13 75.61 78.18 76.14 75.80 76.98 79.50 77.44 78.80 77.64 76.04 74.92 75.90 76.93 77.22 76.90 76.30 75.37 74.87 74.74 74.97 74.74 74.38
78.07 76.65 77.93 77.92 77.70 75.96 77.55 77.87 77.00 76.57 75.19 74.47 74.32 75.36 73.86 73.64 74.01 69.28 66.28 69.93 73.08 74.21 74.80 75.89 75.57 75.85 77.10 78.12 77.05 76.78 75.61 74.62 74.80 75.47 76.10 76.40 76.20 76.22 76.07 75.85 75.97 75.77 75.69
76.62 77.47 77.17 77.80 78.09 77.41 77.95 77.08 77.97 77.55 76.34 75.74 74.73 74.35 73.20 72.30 71.30 70.69 69.71 70.91 70.34 72.61 73.51 72.73 75.37 75.32 75.90 75.63 76.86 75.44 75.45 74.94 74.19 73.82 73.72 74.36 74.99 75.71 76.42 76.65 76.78 76.65 76.60
74.16 76.26 77.20 77.42 77.47 78.76 78.62 77.91 78.08 77.19 77.20 75.40 76.00 74.31 74.98 73.80 73.03 72.19 72.59 69.97 69.67 71.51 72.12 74.22 71.90 75.38 74.62 75.07 75.66 75.47 76.85 73.95 72.56 71.69 71.43 71.73 72.47 73.24 73.90 74.76 75.57 76.40 77.06
75.89 77.51 77.40 77.04 77.88 78.37 78.43 78.38 76.30 76.44 77.39 76.32 77.12 76.36 74.00 74.53 73.85 73.52 72.01 70.53 68.36 69.28 71.07 74.02 74.32 73.58 75.29 75.17 75.61 74.82 75.21 73.60 72.51 71.02 70.20 70.05 70.48 71.03 71.96 72.99 74.21 76.15 75.50
75.18 76.36 79.03 77.85 78.21 78.08 78.37 78.62 76.10 76.62 76.87 76.70 76.71 76.82 75.24 74.10 74.68 74.67 74.03 72.89 70.79 68.73 67.82 71.36 71.10 76.00 75.44 74.92 75.61 76.05 76.09 74.58 73.90 71.51 70.26 69.73 69.76 70.07 71.16 72.89 73.71 72.80 71.54
74.72 74.57 73.99 78.39 77.95 78.00 78.12 78.12 76.92 77.14 76.86 75.60 75.20 76.35 76.53 76.24 76.35 74.90 74.49 73.91 73.40 71.29 69.09 71.52 72.21 76.01 76.49 74.59 75.58 75.63 75.53 73.98 72.58 72.04 70.74 69.39 69.35 69.80 70.20 70.19 70.46 69.95 69.72
76.12 71.66 75.34 75.28 77.42 77.76 78.03 77.35 77.18 77.18 76.62 76.25 76.19 76.04 75.70 76.62 74.50 74.69 74.19 74.09 73.30 73.47 70.48 71.40 73.32 75.40 74.20 75.35 75.10 75.76 75.75 74.78 75.19 70.94 70.13 69.44 68.69 68.64 68.53 68.48 68.54 68.81 69.41
76.82 73.21 72.26 72.26 69.68 74.74 77.51 76.81 76.21 75.89 76.00 75.52 75.70 75.55 75.64 74.75 75.76 76.26 75.91 75.45 73.73 74.60 72.15 71.15 73.20 73.22 75.16 76.80 76.03 75.50 74.89 73.78 75.05 71.28 69.59 68.45 67.41 66.76 66.45 67.10 67.79 68.42 66.47
75.23 75.00 74.08 69.35 72.53 75.02 76.61 76.76 76.34 75.88 76.13 76.12 75.27 75.19 75.69 75.64 75.32 75.75 75.90 75.17 74.15 74.23 73.25 72.14 71.10 72.65 73.12 74.13 74.92 75.27 75.14 75.26 73.92 70.55 68.38 67.12 66.56 66.20 66.12 66.03 66.16 64.59 61.65
73.45 74.57 74.69 73.58 72.40 73.42 76.18 76.28 76.15 76.18 76.07 75.94 76.65 76.22 76.63 75.99 76.16 76.00 75.60 75.85 75.80 73.64 73.59 71.77 71.10 70.11 71.53 74.44 73.78 71.64 72.47 73.72 72.08 72.76 70.80 70.00 68.90 67.01 66.27 65.40 64.59 63.41 60.54
72.91 73.01 72.84 73.36 73.82 73.34 74.85 75.25 75.56 75.24 75.88 75.64 76.35 76.55 76.77 75.24 71.82 74.17 74.75 76.22 75.38 73.18 71.86 71.52 69.87 69.99 70.57 71.19 70.36 71.49 71.43 71.19 74.55 74.04 72.94 72.53 71.37 71.18 70.75 65.87 67.99 65.40 61.91
71.42 71.77 71.66 71.62 71.67 71.91 67.44 65.76 70.96 74.79 75.14 75.53 75.52 76.44 76.27 71.88 71.09 66.97 66.96 68.13 73.00 73.35 72.16 70.55 69.86 69.45 74.12 72.33 71.57 70.70 71.00 69.92 68.22 73.11 72.07 71.04 72.82 71.49 71.30 72.30 68.53 65.34 62.05
71.33 70.78 70.95 71.18 70.58 71.70 63.69 63.13 65.51 72.93 73.78 74.83 75.27 76.02 75.24 73.84 72.05 74.57 67.36 65.92 66.30 65.52 67.67 73.85 72.34 72.36 73.00 74.50 74.49 73.50 73.40 72.64 70.20 72.34 73.88 69.87 73.10 70.82 72.53 72.29 65.00 63.46 61.47
70.74 70.93 70.67 71.43 71.14 71.40 62.04 60.79 62.72 72.81 73.63 74.17 74.57 75.31 74.75 74.54 75.17 73.10 74.41 73.33 73.02 72.71 72.47 71.79 71.77 72.59 74.44 75.40 75.49 74.99 74.92 74.47 73.60 72.47 73.79 68.23 70.55 70.02 72.60 72.95 63.68 62.58 60.90
70.99 71.00 70.85 70.48 70.84 71.28 59.32 57.69 63.77 70.77 71.16 72.01 73.38 73.12 73.57 72.13 62.74 61.15 72.94 72.45 71.34 71.12 67.57 62.31 62.26 62.75 62.48 62.15 67.32 74.74 72.06 71.92 68.66 69.68 73.34 70.22 69.99 69.55 70.74 71.63 71.10 61.57 59.80
70.77 71.02 70.12 70.11 65.49 69.99 58.85 55.71 61.78 69.14 69.34 69.58 70.73 70.24 63.14 66.56 60.06 59.34 69.81 68.51 68.54 67.61 68.05 68.38 68.58 65.23 64.31 67.75 62.17 73.34 72.67 70.56 70.62 69.73 72.20 70.30 70.02 69.67 67.38 71.22 71.95 68.10 67.32
MSLP
1016.21 1016.57 1016.74 1016.47 1016.46 1017.01 1017.57 1017.36 1016.98 1017.09 1017.38 1017.27 1017.45 1017.36 1017.19 1016.77 1016.96 1016.63 1017.45 1018.06 1018.49 1019.08 1019.58 1019.91 1020.16 1020.41 1020.54 1020.68 1020.86 1021.02 1021.16 1021.28 1021.41 1021.61 1021.77 1021.86 1021.93 1021.98 1022.05 1022.14 1022.17 1022.23 1022.31
1015.67 1016.12 1016.57 1016.25 1016.09 1016.83 1017.34 1017.30 1016.86 1016.85 1017.37 1017.40 1017.65 1017.37 1017.21 1016.86 1016.97 1017.49 1017.61 1018.13 1018.50 1018.55 1019.08 1019.52 1019.81 1020.07 1020.24 1020.40 1020.55 1020.76 1020.92 1021.02 1021.12 1021.20 1021.38 1021.54 1021.64 1021.72 1021.78 1021.88 1021.91 1021.99 1022.12
1015.64 1015.90 1016.46 1016.47 1016.31 1016.25 1016.96 1017.27 1017.24 1017.18 1017.46 1017.15 1017.31 1017.45 1017.41 1017.14 1016.72 1017.17 1017.30 1017.31 1018.13 1018.38 1018.44 1018.91 1019.32 1019.63 1019.85 1020.04 1020.15 1020.33 1020.56 1020.71 1020.82 1020.90 1020.98 1021.10 1021.22 1021.37 1021.47 1021.58 1021.60 1021.64 1021.85
1015.25 1015.61 1016.13 1015.85 1015.48 1016.10 1016.47 1016.47 1017.10 1017.13 1017.26 1016.96 1017.06 1017.11 1017.15 1016.98 1016.88 1017.13 1017.07 1016.97 1017.66 1017.61 1018.47 1018.37 1018.41 1019.00 1019.38 1019.60 1019.73 1019.85 1020.03 1020.28 1020.48 1020.56 1020.55 1020.62 1020.75 1020.91 1021.10 1021.25 1021.31 1021.40 1021.34
1014.79 1014.57 1014.32 1014.80 1015.02 1015.44 1015.67 1016.04 1016.27 1016.64 1016.54 1016.70 1016.67 1016.99 1016.97 1016.73 1016.59 1016.37 1016.72 1016.68 1016.68 1016.69 1017.48 1018.07 1018.29 1018.44 1018.71 1018.94 1019.16 1019.33 1019.43 1019.59 1019.81 1019.97 1020.11 1020.13 1020.24 1020.35 1020.47 1020.65 1020.73 1020.85 1020.88
1014.41 1014.67 1014.12 1014.19 1014.66 1014.95 1014.88 1015.41 1015.79 1015.96 1016.12 1016.41 1016.38 1016.03 1016.41 1016.44 1016.28 1016.18 1015.90 1015.86 1016.05 1016.35 1016.60 1016.95 1017.67 1017.74 1017.81 1017.97 1018.18 1018.45 1018.66 1018.86 1019.02 1019.27 1019.38 1019.52 1019.59 1019.73 1019.77 1019.95 1020.10 1020.20 1020.25
1013.64 1014.25 1013.94 1014.33 1014.79 1014.81 1014.90 1015.27 1015.79 1016.28 1016.36 1016.25 1016.11 1015.89 1015.60 1015.92 1015.96 1015.71 1015.34 1015.20 1015.41 1015.72 1015.81 1015.88 1016.33 1016.31 1016.33 1017.18 1017.51 1017.71 1017.84 1018.01 1018.19 1018.39 1018.60 1018.81 1018.97 1019.09 1019.10 1019.19 1019.35 1019.48 1019.60
1013.02 1013.40 1013.91 1013.75 1014.51 1015.09 1015.30 1015.21 1015.69 1015.86 1016.10 1016.03 1015.93 1015.52 1015.22 1015.23 1015.07 1015.23 1015.37 1015.17 1014.87 1014.75 1014.96 1015.30 1015.48 1015.86 1016.17 1016.21 1016.46 1016.94 1017.15 1017.35 1017.47 1017.63 1017.80 1017.95 1018.10 1018.26 1018.36 1018.47 1018.57 1018.65 1018.76
1012.45 1012.92 1013.23 1013.50 1013.85 1014.53 1014.86 1015.17 1015.91 1016.22 1015.28 1015.28 1015.71 1015.24 1014.74 1014.35 1013.84 1014.06 1014.56 1014.58 1014.46 1014.27 1014.51 1014.92 1014.89 1015.03 1015.44 1015.79 1015.95 1015.92 1016.26 1016.44 1016.66 1016.87 1017.06 1017.18 1017.26 1017.39 1017.52 1017.60 1017.69 1017.81 1017.90
1011.53 1012.11 1012.67 1012.98 1013.60 1013.83 1014.16 1014.69 1015.23 1015.51 1015.44 1015.07 1014.80 1015.14 1014.88 1014.98 1014.69 1014.38 1014.52 1014.92 1013.86 1014.33 1014.50 1014.54 1014.35 1014.50 1014.69 1015.05 1015.22 1015.40 1015.54 1015.93 1016.25 1016.43 1016.52 1016.61 1016.64 1016.70 1016.76 1016.83 1016.90 1016.97 1017.13
1010.74 1011.01 1011.53 1012.32 1012.81 1013.33 1013.28 1013.72 1014.21 1014.60 1014.65 1014.96 1014.91 1015.02 1015.11 1015.14 1015.61 1015.63 1015.12 1014.63 1014.28 1014.05 1014.15 1014.37 1014.02 1013.74 1014.00 1014.25 1014.26 1014.51 1014.70 1015.04 1015.34 1015.64 1015.94 1016.09 1016.13 1016.10 1016.08 1016.08 1016.15 1016.23 1016.32
1009.83 1010.38 1010.67 1011.27 1011.79 1012.16 1012.53 1012.88 1013.40 1013.87 1014.13 1014.13 1014.35 1014.75 1014.75 1014.87 1014.87 1014.95 1014.90 1014.56 1014.32 1013.84 1013.25 1013.84 1013.48 1013.48 1013.54 1013.47 1013.59 1013.75 1014.06 1014.43 1014.85 1015.17 1015.43 1015.58 1015.66 1015.62 1015.46 1015.42 1015.45 1015.48 1015.59
1008.32 1008.87 1009.81 1010.19 1010.66 1011.04 1011.43 1012.08 1012.57 1012.94 1013.21 1013.40 1013.67 1013.87 1014.31 1014.44 1014.42 1014.43 1014.82 1014.41 1013.84 1013.29 1012.96 1012.87 1013.36 1014.24 1013.09 1013.55 1013.62 1013.77 1013.68 1014.03 1014.40 1014.64 1014.79 1014.97 1015.10 1015.08 1014.97 1014.88 1014.83 1014.91 1014.87
1007.10 1007.73 1008.51 1009.12 1009.68 1010.16 1010.66 1011.11 1011.68 1012.09 1012.31 1012.58 1012.77 1013.08 1012.95 1012.92 1013.46 1013.71 1013.43 1013.33 1013.00 1012.36 1012.22 1012.49 1012.42 1012.57 1012.63 1013.10 1013.15 1013.56 1013.49 1013.76 1013.91 1014.08 1014.34 1014.42 1014.45 1014.46 1014.49 1014.42 1014.31 1014.31 1014.50
1006.57 1006.52 1007.15 1008.36 1008.67 1009.18 1009.73 1010.14 1010.63 1011.08 1011.55 1011.98 1012.18 1012.50 1012.55 1012.26 1012.17 1012.71 1012.74 1012.47 1012.36 1012.52 1012.02 1011.88 1012.20 1012.11 1012.45 1012.90 1012.89 1013.23 1013.43 1013.51 1013.70 1013.84 1013.96 1013.99 1013.87 1013.79 1013.85 1013.89 1013.89 1014.07 1014.44
1006.61 1006.55 1007.09 1007.42 1008.53 1008.61 1009.00 1009.30 1009.49 1010.15 1010.74 1011.01 1011.29 1011.82 1012.19 1012.26 1012.05 1012.43 1012.49 1012.43 1012.71 1012.75 1012.31 1011.94 1011.65 1011.89 1012.23 1012.54 1012.73 1012.97 1013.05 1013.14 1013.30 1013.37 1013.39 1013.48 1013.55 1013.46 1013.50 1013.66 1013.89 1014.08 1014.29
1006.69 1006.31 1007.04 1008.00 1007.97 1008.16 1008.53 1009.00 1008.70 1008.68 1009.52 1010.26 1010.60 1010.84 1011.38 1011.75 1011.82 1011.95 1012.16 1012.33 1012.37 1012.75 1012.53 1011.78 1011.56 1011.70 1012.03 1012.31 1012.40 1012.60 1012.70 1012.78 1012.54 1012.91 1013.06 1013.10 1013.30 1013.50 1013.64 1013.75 1013.95 1014.11 1014.33
1006.23 1005.97 1006.60 1007.75 1008.31 1008.20 1008.09 1008.65 1008.29 1007.96 1008.38 1009.19 1009.89 1010.26 1010.33 1010.78 1011.14 1011.39 1011.60 1011.70 1011.83 1012.26 1012.32 1011.92 1011.50 1011.19 1011.34 1011.54 1011.97 1012.41 1012.49 1012.38 1012.07 1012.48 1012.93 1012.97 1012.99 1013.25 1013.43 1013.64 1013.82 1013.92 1014.07
1005.06 1005.75 1006.31 1006.12 1005.34 1007.14 1007.72 1007.81 1007.91 1007.58 1007.68 1008.00 1008.80 1009.26 1009.52 1010.00 1010.29 1010.61 1011.00 1011.16 1011.27 1011.60 1011.83 1011.57 1011.08 1010.71 1010.75 1010.78 1011.49 1011.85 1011.97 1012.03 1011.98 1012.52 1012.92 1012.89 1012.98 1013.00 1013.05 1013.11 1013.36 1013.49 1013.71
1003.37 1004.67 1005.01 1004.58 1005.62 1006.44 1006.15 1006.89 1006.73 1006.88 1007.14 1007.27 1007.60 1007.98 1008.31 1008.98 1009.33 1009.78 1010.19 1010.53 1010.85 1010.85 1010.94 1010.98 1010.41 1010.18 1010.24 1010.56 1011.15 1011.36 1011.50 1011.55 1011.33 1011.36 1011.94 1012.08 1012.39 1012.81 1012.87 1012.91 1012.87 1013.02 1013.22
1002.94 1003.04 1003.26 1003.67 1004.30 1004.87 1003.47 1005.53 1005.84 1006.32 1006.68 1006.65 1006.81 1007.07 1007.42 1008.13 1008.21 1009.01 1009.39 1009.79 1010.29 1010.63 1010.10 1010.03 1009.93 1009.15 1009.70 1011.05 1010.94 1010.67 1010.95 1010.53 1010.63 1010.87 1011.01 1011.07 1011.46 1011.59 1011.92 1012.45 1012.25 1012.47 1012.65
1002.49 1002.54 1002.79 1003.18 1003.78 1004.03 1004.41 1005.20 1005.61 1005.97 1006.22 1006.33 1006.36 1006.46 1007.04 1007.10 1007.72 1008.15 1008.62 1009.16 1009.56 1009.81 1010.12 1009.80 1010.15 1009.50 1009.09 1010.57 1010.82 1010.67 1010.54 1010.50 1010.14 1009.76 1010.24 1010.14 1010.23 1010.58 1010.62 1010.68 1011.01 1011.47 1011.88
1002.89 1002.88 1003.18 1003.30 1003.65 1003.72 1004.28 1004.85 1005.17 1005.46 1005.71 1005.85 1006.08 1006.42 1006.77 1006.64 1007.05 1007.51 1008.14 1008.60 1009.14 1009.30 1009.52 1009.90 1009.95 1009.50 1009.09 1009.65 1010.69 1010.46 1010.46 1010.32 1010.08 1009.67 1010.13 1009.66 1009.47 1009.81 1009.61 1009.74 1010.28 1010.69 1011.23
1002.98 1003.16 1003.17 1003.39 1003.69 1003.88 1004.44 1004.83 1005.50 1005.50 1005.44 1005.38 1005.75 1005.94 1006.32 1006.46 1006.68 1007.20 1007.47 1007.82 1008.24 1008.59 1009.05 1009.63 1009.93 1010.03 1009.10 1009.74 1010.48 1010.43 1010.40 1010.28 1010.20 1009.87 1009.50 1009.25 1009.05 1008.64 1008.59 1008.91 1009.48 1010.10 1010.66
1002.89 1003.08 1003.31 1003.51 1003.66 1003.93 1004.65 1005.13 1005.47 1005.02 1005.00 1005.30 1005.49 1005.82 1005.92 1006.19 1006.93 1007.37 1007.39 1007.80 1008.13 1008.51 1008.71 1008.92 1009.25 1009.42 1009.39 1009.67 1010.22 1010.42 1010.25 1010.18 1009.59 1009.08 1009.13 1008.96 1008.85 1008.47 1008.21 1008.16 1008.33 1009.41 1009.84
1002.90 1003.17 1003.27 1003.54 1003.86 1004.10 1004.59 1004.96 1005.16 1004.75 1005.11 1005.51 1005.73 1006.08 1006.64 1006.78 1007.33 1007.91 1007.93 1008.16 1008.20 1008.46 1008.81 1008.71 1009.11 1009.37 1009.66 1010.07 1009.55 1009.75 1009.54 1009.68 1009.50 1009.07 1008.62 1009.01 1008.56 1008.40 1008.08 1007.41 1007.63 1008.98 1009.74
Wind_Speed
7 6 6 7 7 9 7 5 5 8 8 5 7 2 6 6 3 5 5 17 17 14 12 12 11 11 11 10 10 9 9 8 9 8 8 8 9 9 9 8 9 9 9
8 9 7 8 7 7 7 5 6 7 5 6 8 7 8 6 7 5 4 6 14 15 13 13 12 12 12 11 11 11 10 10 10 9 10 10 10 10 11 10 10 10 9
8 5 7 8 7 6 10 7 3 3 7 8 9 10 8 9 8 5 7 4 9 14 16 15 13 12 12 12 12 11 12 11 11 11 11 12 12 12 11 12 11 12 10
11 11 9 9 10 6 7 10 9 8 7 9 7 8 9 9 10 8 7 6 6 3 8 17 17 14 13 14 14 13 13 13 13 13 13 13 13 13 13 13 14 13 14
9 9 10 7 9 11 10 9 9 10 9 8 8 8 7 8 9 9 10 9 6 5 7 14 16 15 15 16 15 15 15 14 14 14 14 14 14 14 14 15 15 15 15
13 10 10 4 9 9 9 10 9 8 7 8 8 9 9 9 9 9 10 10 7 9 7 7 9 11 20 19 18 17 17 16 15 15 16 15 16 16 16 16 16 16 16
14 11 11 7 9 9 10 8 7 8 9 8 8 8 7 9 10 9 10 9 8 9 12 6 6 7 6 19 19 19 19 18 17 16 16 16 16 16 16 16 16 16 16
12 13 13 10 12 7 8 6 7 9 9 9 9 8 8 9 11 12 10 10 11 9 7 9 10 8 8 7 12 20 19 18 18 17 17 17 17 16 15 16 16 15 16
13 13 13 12 11 9 9 9 6 8 11 10 12 8 6 8 6 5 9 10 8 8 8 5 8 9 9 9 9 10 19 19 18 17 16 17 16 16 16 17 16 16 16
16 15 14 13 11 12 12 11 10 11 12 7 5 10 11 7 3 4 3 1 9 5 7 9 9 9 8 9 11 12 7 14 13 14 15 15 14 15 16 16 16 17 16
16 18 16 15 14 12 11 12 13 12 11 9 6 4 6 7 6 7 6 6 5 7 5 1 8 9 6 9 9 10 13 13 14 14 13 14 16 15 15 16 16 17 16
14 17 17 16 15 14 13 13 13 13 12 10 8 8 7 7 9 9 9 9 10 10 8 7 9 3 6 8 9 12 9 11 9 9 10 12 14 15 15 14 14 17 17
13 16 18 16 15 15 14 13 12 14 14 13 12 10 9 10 8 7 5 8 10 11 8 6 2 11 6 7 7 5 5 8 8 9 9 11 13 14 15 15 15 16 14
13 15 19 18 17 16 15 13 12 13 13 13 15 13 11 9 10 11 11 11 11 12 8 5 7 2 5 3 7 6 8 11 12 10 9 10 12 13 13 13 14 13 9
9 12 18 18 18 18 16 15 12 13 13 13 12 13 12 12 7 8 9 10 8 8 11 9 2 2 5 7 3 6 8 9 6 8 8 9 11 12 12 11 9 8 8
14 8 8 16 17 16 17 16 14 14 13 13 11 12 12 10 9 10 8 9 8 9 10 10 8 4 5 2 7 8 10 5 12 12 10 7 9 9 9 9 9 8 9
14 9 9 17 15 17 17 17 17 14 16 14 14 13 13 13 9 9 10 9 8 7 10 10 9 5 6 7 6 7 7 5 6 8 8 7 7 6 6 7 7 7 5
14 15 18 11 10 16 16 18 18 16 16 15 15 15 14 12 14 11 7 11 10 9 9 11 10 7 5 6 7 8 5 6 7 6 6 7 8 8 7 5 6 7 6
14 13 15 20 18 22 17 16 16 16 16 15 15 15 14 12 12 9 10 10 10 9 10 10 10 7 8 6 6 7 7 8 6 6 6 5 7 9 9 9 10 8 8
12 10 10 10 13 20 18 16 14 14 15 15 15 15 14 14 13 12 10 10 9 9 10 10 9 9 8 3 3 5 7 8 8 7 8 9 10 11 11 10 11 11 10
10 7 7 6 7 11 8 12 13 14 14 15 14 14 14 16 15 14 10 9 10 10 10 9 10 8 5 5 8 7 5 7 5 5 6 5 8 9 10 12 12 14 13
5 6 8 9 11 9 10 12 10 11 14 14 13 13 15 9 10 10 13 12 10 10 11 7 9 8 4 7 9 8 7 5 7 8 8 7 5 7 6 9 14 14 15
8 7 8 8 9 9 8 9 7 12 12 13 13 12 12 12 12 14 13 10 9 6 6 7 10 8 2 5 8 8 8 5 7 3 5 7 4 7 7 6 9 16 15
8 7 8 7 8 8 9 6 5 9 11 13 13 12 12 12 10 11 11 13 13 11 11 6 7 9 4 4 7 7 7 6 7 8 8 7 7 8 6 6 17 16 15
7 8 7 9 9 7 9 9 7 7 9 8 7 6 9 6 5 0 9 11 6 6 6 9 8 10 3 5 8 6 7 6 8 8 6 6 8 9 7 8 8 16 16
6 5 5 5 3 8 8 10 8 6 8 7 6 5 1 4 6 7 5 6 7 5 4 4 5 4 8 14 13 9 8 8 7 6 8 6 7 7 9 8 7 10 8
Wind_Direction
175 186 198 234 184 157 198 256 249 182 207 209 270 253 272 239 285 288 136 163 173 186 204 213 215 221 222 221 225 230 234 238 228 235 241 242 241 243 244 249 245 246 249
170 185 194 224 198 167 184 217 260 167 222 196 236 235 246 252 206 69 250 142 195 183 195 212 219 226 230 231 234 236 239 241 243 242 237 241 248 256 245 244 256 243 251
160 191 207 227 220 199 182 195 239 216 234 200 222 206 246 246 260 183 253 131 200 196 189 199 214 223 228 233 234 235 237 238 238 240 244 240 238 242 247 242 247 248 249
172 191 189 215 187 203 202 199 190 208 221 212 215 221 206 251 214 239 271 267 178 191 189 207 197 212 225 234 237 236 238 235 237 238 240 244 240 237 240 243 246 246 249
229 215 228 199 169 196 190 221 201 216 200 224 210 214 233 239 231 227 231 243 261 250 192 188 208 206 214 226 232 235 237 236 236 235 236 240 243 241 239 237 241 241 241
207 196 225 190 182 226 215 201 214 211 243 203 245 206 213 221 233 248 245 231 236 236 228 199 183 210 217 218 220 224 231 233 233 237 236 235 236 239 239 235 238 241 241
194 201 229 189 194 231 223 189 199 232 215 245 230 250 237 220 245 247 238 234 223 217 242 223 238 269 232 213 219 221 226 228 229 233 235 239 239 238 239 238 235 239 241
203 197 218 204 187 218 264 213 210 217 221 217 227 238 229 224 227 223 235 258 248 245 249 226 228 219 254 268 212 218 224 226 230 231 232 235 237 235 236 237 235 235 240
203 211 204 234 180 197 211 213 195 236 234 207 206 245 218 241 242 196 205 226 258 243 254 243 244 215 206 232 271 246 214 217 221 226 232 236 236 232 234 236 233 234 235
203 204 214 207 234 207 199 199 198 207 245 238 206 213 264 337 283 260 299 318 257 234 258 265 266 250 227 226 233 249 230 209 221 232 237 242 247 239 237 235 236 237 237
205 210 203 212 209 224 219 213 201 203 215 229 216 217 242 239 240 260 267 262 247 243 238 334 251 241 198 229 237 245 219 216 214 221 228 243 250 250 247 239 237 238 233
196 213 212 204 213 213 219 211 218 212 212 217 218 210 217 201 211 214 238 262 287 280 262 210 212 229 272 291 256 236 190 191 212 216 230 248 252 252 252 250 250 247 238
215 197 208 210 208 211 216 213 212 225 210 210 209 210 218 230 220 217 221 248 252 250 245 244 182 240 236 257 266 15 243 210 217 219 226 246 252 250 252 252 254 262 242
210 211 197 206 211 215 210 208 215 223 220 218 217 220 228 210 198 215 222 227 245 255 242 215 238 55 283 298 323 163 274 199 219 219 227 237 242 245 247 245 244 237 187
241 215 190 203 207 210 213 207 213 211 223 218 223 223 226 238 233 216 242 249 245 266 272 277 191 238 241 238 331 315 291 284 225 210 229 246 247 235 230 217 195 186 195
241 257 277 202 210 214 215 211 211 210 222 228 219 218 223 241 228 227 241 239 248 248 258 260 273 269 194 262 232 268 257 181 204 209 216 229 239 219 194 197 201 204 217
238 213 254 263 219 216 218 221 217 218 206 218 231 230 222 230 235 229 228 237 232 221 245 255 261 208 176 227 272 271 262 249 234 203 201 203 209 208 213 214 224 233 246
231 215 204 243 275 256 225 224 221 221 216 220 220 230 225 221 224 237 238 236 231 223 232 242 261 266 227 217 229 248 256 279 285 159 224 207 201 204 213 222 232 233 231
246 233 224 177 210 240 237 223 223 224 231 217 222 224 225 225 235 224 223 234 223 220 221 234 244 241 238 197 205 229 247 238 255 153 222 223 224 212 210 205 220 215 220
263 237 234 233 197 232 223 227 224 225 227 228 223 221 220 220 226 222 225 223 238 233 217 233 234 237 231 229 273 260 228 226 237 215 215 238 191 213 218 217 217 215 215
247 255 270 257 238 239 247 230 230 232 230 232 238 222 218 228 210 210 215 213 217 222 236 214 230 223 208 222 244 247 266 260 196 238 239 215 208 210 216 219 231 215 215
238 256 253 253 243 227 208 208 218 238 240 234 232 229 236 204 217 191 202 221 215 220 248 221 234 244 189 228 248 252 238 250 254 218 228 251 244 214 213 205 204 215 204
224 225 242 239 253 251 156 174 193 236 241 238 234 235 231 225 219 218 216 229 228 227 238 226 240 256 342 220 258 260 270 270 256 248 208 263 257 220 233 225 192 194 192
210 220 226 230 239 242 154 156 147 237 246 244 240 232 230 235 221 218 224 213 221 221 221 218 229 257 255 257 262 258 258 264 269 264 254 260 278 260 215 216 176 181 183
226 224 232 237 239 234 156 160 189 232 254 250 245 250 233 211 122 346 218 216 213 228 216 225 248 279 302 215 240 240 249 236 253 253 194 254 271 268 263 223 185 192 183
225 227 217 230 262 260 179 163 192 238 235 238 229 156 223 109 148 207 212 200 218 239 266 281 263 268 263 256 226 228 240 248 245 267 240 228 244 246 266 246 243 156 182